Surface/Precipitation History
10/24/2014 15:11  to  10/25/2014 15:11
Change End Date:
Date/Time
(MDT)
Sf
Temp Chem Water Layer Surface Precipitation
Sf Sub Frz Factor Pct Depth IcePct Cond Salin Type Intens Accum Rate
10/25/2014 15:10 Dry 68.9F 48F - - - - - 38 mhos 2737 None None - -
10/25/2014 15:02 Dry 70.0F 48F - - - - - 37 mhos 2688 None None - -
10/25/2014 14:57 Dry 72.0F 47F - - - - - 37 mhos 2634 None None - -
10/25/2014 14:52 Dry 70.9F 47F - - - - - 37 mhos 2663 None None - -
10/25/2014 14:42 Dry 70.2F 47F - - - - - 37 mhos 2684 None None - -
10/25/2014 14:32 Dry 72.5F 47F - - - - - 1 mhos 48 None None - -
10/25/2014 14:26 Dry 75.6F 47F - - - - - 1 mhos 47 None None - -
10/25/2014 14:22 Dry 76.5F 47F - - - - - 1 mhos 47 None None - -
10/25/2014 14:12 Dry 76.8F 47F - - - - - 37 mhos 2476 None None - -
10/25/2014 14:02 Dry 75.7F 47F - - - - - 37 mhos 2501 None None - -
10/25/2014 13:56 Dry 73.6F 47F - - - - - 37 mhos 2572 None None - -
10/25/2014 13:52 Dry 75.4F 47F - - - - - 37 mhos 2531 None None - -
10/25/2014 13:42 Dry 74.3F 47F - - - - - 37 mhos 2557 None None - -
10/25/2014 13:32 Dry 73.9F 47F - - - - - 37 mhos 2565 None None - -
10/25/2014 13:26 Dry 74.1F 47F - - - - - 37 mhos 2561 None None - -
Date/Time
(MDT)
Sf
Temp Chem Water Layer Surface Precipitation
Sf Sub Frz Factor Pct Depth IcePct Cond Salin Type Intens Accum Rate
10/25/2014 13:22 Dry 73.4F 47F - - - - - 37 mhos 2595 None None - -
10/25/2014 13:12 Dry 72.9F 47F - - - - - 37 mhos 2610 None None - -
10/25/2014 13:02 Dry 71.6F 47F - - - - - 38 mhos 2662 None None - -
10/25/2014 12:56 Dry 71.1F 47F - - - - - 38 mhos 2678 None None - -
10/25/2014 12:52 Dry 70.7F 47F - - - - - 38 mhos 2686 None None - -
10/25/2014 12:42 Dry 69.3F 47F - - - - - 38 mhos 2745 None None - -
10/25/2014 12:32 Dry 68.7F 47F - - - - - 38 mhos 2762 None None - -
10/25/2014 12:26 Dry 68.4F 47F - - - - - 38 mhos 2771 None None - -
10/25/2014 12:22 Dry 68.0F 47F - - - - - 38 mhos 2780 None None - -
10/25/2014 12:12 Dry 66.7F 47F - - - - - 38 mhos 2837 None None - -
10/25/2014 12:01 Dry 65.7F 47F - - - - - 38 mhos 2869 None None - -
10/25/2014 11:56 Dry 64.9F 47F - - - - - 38 mhos 2915 None None - -
10/25/2014 11:51 Dry 64.4F 47F - - - - - 38 mhos 2930 None None - -
10/25/2014 11:41 Dry 63.1F 47F - - - - - 38 mhos 2974 None None - -
10/25/2014 11:31 Dry 61.9F 47F - - - - - 39 mhos 3039 None None - -
Date/Time
(MDT)
Sf
Temp Chem Water Layer Surface Precipitation
Sf Sub Frz Factor Pct Depth IcePct Cond Salin Type Intens Accum Rate
10/25/2014 11:27 Dry 61.2F 47F - - - - - 39 mhos 3060 None None - -
10/25/2014 11:21 Dry 60.3F 47F - - - - - 39 mhos 3092 None None - -
10/25/2014 11:11 Dry 58.5F 47F - - - - - 39 mhos 3183 None None - -
10/25/2014 11:01 Dry 57.0F 47F - - - - - 39 mhos 3236 None None - -
10/25/2014 10:51 Dry 55.8F 47F - - - - - 39 mhos 3310 None None - -
10/25/2014 10:41 Dry 54.3F 47F - - - - - 39 mhos 3366 None None - -
10/25/2014 10:31 Dry 52.9F 47F - - - - - 39 mhos 3425 None None - -
10/25/2014 10:26 Dry 52.2F 47F - - - - - 39 mhos 3459 None None - -
10/25/2014 10:21 Dry 51.4F 47F - - - - - 39 mhos 3486 None None - -
10/25/2014 10:11 Dry 50.0F 47F - - - - - 39 mhos 3549 None None - -
10/25/2014 10:01 Dry 48.6F 47F - - - - - 40 mhos 3652 None None - -
10/25/2014 09:56 Dry 47.8F 47F - - - - - 40 mhos 3682 None None - -
10/25/2014 09:51 Dry 47.1F 47F - - - - - 40 mhos 3721 None None - -
10/25/2014 09:41 Dry 45.3F 47F - - - - - 40 mhos 3810 None None - -
10/25/2014 09:31 Dry 43.9F 47F - - - - - 40 mhos 3886 None None - -
Date/Time
(MDT)
Sf
Temp Chem Water Layer Surface Precipitation
Sf Sub Frz Factor Pct Depth IcePct Cond Salin Type Intens Accum Rate
10/25/2014 09:25 Dry 43.2F 47F - - - - - 40 mhos 3930 None None - -
10/25/2014 09:21 Dry 42.6F 47F - - - - - 40 mhos 3956 None None - -
10/25/2014 09:11 Dry 41.4F 47F - - - - - 40 mhos 4034 None None - -
10/25/2014 09:10 Dry 41.0F 47F - - - - - 40 mhos 4047 None None - -
10/25/2014 09:00 Dry 40.5F 47F - - - - - 40 mhos 4085 None None - -
10/25/2014 08:55 Dry 39.9F 47F - - - - - 40 mhos 4114 None None - -
10/25/2014 08:50 Dry 39.6F 47F - - - - - 40 mhos 4143 None None - -
10/25/2014 08:40 Dry 38.8F 47F - - - - - 40 mhos 4182 None None - -
10/25/2014 08:40 Dry 38.8F 48F - - - - - 40 mhos 4182 None None - -
10/25/2014 08:30 Dry 38.1F 48F - - - - - 40 mhos 4232 None None - -
10/25/2014 08:25 Dry 37.8F 48F - - - - - 40 mhos 4289 None None - -
10/25/2014 08:20 Dry 37.6F 48F - - - - - 40 mhos 4299 None None - -
10/25/2014 08:10 Dry 37.6F 48F - - - - - 40 mhos 4263 None None - -
10/25/2014 08:10 Dry 37.6F 48F - - - - - 40 mhos 4263 None None - -
10/25/2014 08:00 Dry 37.2F 48F - - - - - 40 mhos 4284 None None - -
Date/Time
(MDT)
Sf
Temp Chem Water Layer Surface Precipitation
Sf Sub Frz Factor Pct Depth IcePct Cond Salin Type Intens Accum Rate
10/25/2014 07:55 Dry 37.2F 48F - - - - - 40 mhos 4284 None None - -
10/25/2014 07:50 Dry 36.9F 48F - - - - - 40 mhos 4316 None None - -
10/25/2014 07:40 Dry 36.1F 48F - - - - - 40 mhos 4358 None None - -
10/25/2014 07:40 Dry 36.1F 48F - - - - - 40 mhos 4358 None None - -
10/25/2014 07:30 Dry 35.8F 48F - - - - - 40 mhos 4391 None None - -
10/25/2014 07:26 Dry 35.8F 48F - - - - - 40 mhos 4391 None None - -
10/25/2014 07:20 Dry 35.1F 48F - - - - - 40 mhos 4435 None None - -
10/25/2014 07:10 Dry 34.9F 48F - - - - - 40 mhos 4447 None None - -
10/25/2014 07:00 Dry 35.4F 48F - - - - - 40 mhos 4413 None None - -
10/25/2014 06:55 Dry 35.6F 48F - - - - - 40 mhos 4402 None None - -
10/25/2014 06:50 Dry 36.0F 48F - - - - - 40 mhos 4380 None None - -
10/25/2014 06:40 Dry 35.6F 48F - - - - - 40 mhos 4402 None None - -
10/25/2014 06:30 Dry 34.2F 48F - - - - - 40 mhos 4504 None None - -
10/25/2014 06:26 Dry 33.6F 48F - - - - - 39 mhos 4512 None None - -
10/25/2014 06:20 Dry 33.6F 48F - - - - - 39 mhos 4512 None None - -
Date/Time
(MDT)
Sf
Temp Chem Water Layer Surface Precipitation
Sf Sub Frz Factor Pct Depth IcePct Cond Salin Type Intens Accum Rate
10/25/2014 06:10 Dry 33.6F 48F - - - - - 39 mhos 4500 None None - -
10/25/2014 06:00 Dry 33.6F 48F - - - - - 40 mhos 4550 None None - -
10/25/2014 05:55 Dry 33.8F 48F - - - - - 40 mhos 4527 None None - -
10/25/2014 05:49 Dry 33.8F 48F - - - - - 40 mhos 4527 None None - -
10/25/2014 05:39 Dry 34.0F 48F - - - - - 40 mhos 4515 None None - -
10/25/2014 05:29 Dry 34.2F 48F - - - - - 40 mhos 4504 None None - -
10/25/2014 05:26 Dry 34.3F 48F - - - - - 40 mhos 4492 None None - -
10/25/2014 05:19 Dry 34.5F 49F - - - - - 40 mhos 4481 None None - -
10/25/2014 05:09 Dry 34.5F 49F - - - - - 40 mhos 4481 None None - -
10/25/2014 04:59 Dry 34.7F 49F - - - - - 40 mhos 4469 None None - -
10/25/2014 04:55 Dry 34.9F 49F - - - - - 40 mhos 4458 None None - -
10/25/2014 04:49 Dry 34.9F 49F - - - - - 40 mhos 4458 None None - -
10/25/2014 04:39 Dry 34.9F 49F - - - - - 40 mhos 4447 None None - -
10/25/2014 04:29 Dry 34.9F 49F - - - - - 40 mhos 4447 None None - -
10/25/2014 04:26 Dry 35.1F 49F - - - - - 40 mhos 4435 None None - -
Date/Time
(MDT)
Sf
Temp Chem Water Layer Surface Precipitation
Sf Sub Frz Factor Pct Depth IcePct Cond Salin Type Intens Accum Rate
10/25/2014 04:19 Dry 35.2F 49F - - - - - 40 mhos 4424 None None - -
10/25/2014 04:09 Dry 35.2F 49F - - - - - 40 mhos 4424 None None - -
10/25/2014 03:59 Dry 35.6F 49F - - - - - 40 mhos 4402 None None - -
10/25/2014 03:55 Dry 35.8F 49F - - - - - 40 mhos 4391 None None - -
10/25/2014 03:49 Dry 36.0F 49F - - - - - 40 mhos 4369 None None - -
10/25/2014 03:39 Dry 36.7F 49F - - - - - 40 mhos 4326 None None - -
10/25/2014 03:29 Dry 37.2F 49F - - - - - 40 mhos 4295 None None - -
10/25/2014 03:25 Dry 37.2F 49F - - - - - 40 mhos 4331 None None - -
10/25/2014 03:19 Dry 37.2F 49F - - - - - 40 mhos 4295 None None - -
10/25/2014 03:09 Dry 37.6F 49F - - - - - 40 mhos 4263 None None - -
10/25/2014 02:59 Dry 37.6F 49F - - - - - 40 mhos 4263 None None - -
10/25/2014 02:55 Dry 37.6F 49F - - - - - 40 mhos 4299 None None - -
10/25/2014 02:49 Dry 37.8F 49F - - - - - 40 mhos 4253 None None - -
10/25/2014 02:38 Dry 37.8F 49F - - - - - 40 mhos 4289 None None - -
10/25/2014 02:28 Dry 38.3F 49F - - - - - 40 mhos 4258 None None - -
Date/Time
(MDT)
Sf
Temp Chem Water Layer Surface Precipitation
Sf Sub Frz Factor Pct Depth IcePct Cond Salin Type Intens Accum Rate
10/25/2014 02:25 Dry 38.5F 49F - - - - - 40 mhos 4248 None None - -
10/25/2014 02:18 Dry 38.8F 49F - - - - - 40 mhos 4217 None None - -
10/25/2014 02:08 Dry 39.0F 49F - - - - - 40 mhos 4207 None None - -
10/25/2014 01:58 Dry 39.4F 49F - - - - - 40 mhos 4187 None None - -
10/25/2014 01:56 Dry 39.4F 49F - - - - - 40 mhos 4187 None None - -
10/25/2014 01:48 Dry 39.4F 49F - - - - - 40 mhos 4187 None None - -
10/25/2014 01:38 Dry 39.7F 49F - - - - - 40 mhos 4168 None None - -
10/25/2014 01:28 Dry 40.1F 49F - - - - - 40 mhos 4138 None None - -
10/25/2014 01:26 Dry 40.3F 49F - - - - - 40 mhos 4135 None None - -
10/25/2014 01:18 Dry 41.0F 49F - - - - - 40 mhos 4090 None None - -
10/25/2014 01:08 Dry 41.7F 49F - - - - - 40 mhos 4044 None None - -
10/25/2014 00:58 Dry 42.1F 49F - - - - - 40 mhos 3992 None None - -
10/25/2014 00:55 Dry 42.1F 49F - - - - - 40 mhos 3992 None None - -
10/25/2014 00:48 Dry 42.3F 49F - - - - - 40 mhos 3983 None None - -
10/25/2014 00:38 Dry 42.3F 49F - - - - - 40 mhos 3974 None None - -
Date/Time
(MDT)
Sf
Temp Chem Water Layer Surface Precipitation
Sf Sub Frz Factor Pct Depth IcePct Cond Salin Type Intens Accum Rate
10/25/2014 00:28 Dry 42.3F 50F - - - - - 40 mhos 3974 None None - -
10/25/2014 00:25 Dry 42.4F 49F - - - - - 40 mhos 3965 None None - -
10/25/2014 00:18 Dry 42.8F 49F - - - - - 40 mhos 3947 None None - -
10/25/2014 00:10 Dry 43.0F 50F - - - - - 40 mhos 3938 None None - -
10/25/2014 00:08 Dry 43.0F 50F - - - - - 40 mhos 3938 None None - -
10/24/2014 23:58 Dry 43.2F 50F - - - - - 40 mhos 3930 None None - -
10/24/2014 23:48 Dry 43.2F 50F - - - - - 40 mhos 3930 None None - -
10/24/2014 23:40 Dry 42.8F 50F - - - - - 40 mhos 3947 None None - -
10/24/2014 23:38 Dry 42.8F 50F - - - - - 40 mhos 3947 None None - -
10/24/2014 23:28 Dry 43.3F 50F - - - - - 40 mhos 3921 None None - -
10/24/2014 23:25 Dry 43.3F 50F - - - - - 40 mhos 3921 None None - -
10/24/2014 23:18 Dry 43.3F 50F - - - - - 40 mhos 3921 None None - -
10/24/2014 23:08 Dry 42.8F 50F - - - - - 40 mhos 3947 None None - -
10/24/2014 22:58 Dry 42.1F 50F - - - - - 40 mhos 3992 None None - -
10/24/2014 22:56 Dry 41.7F 50F - - - - - 40 mhos 4044 None None - -
Date/Time
(MDT)
Sf
Temp Chem Water Layer Surface Precipitation
Sf Sub Frz Factor Pct Depth IcePct Cond Salin Type Intens Accum Rate
10/24/2014 22:47 Dry 41.7F 50F - - - - - 40 mhos 4010 None None - -
10/24/2014 22:37 Dry 42.1F 50F - - - - - 40 mhos 3992 None None - -
10/24/2014 22:27 Dry 42.3F 50F - - - - - 40 mhos 3974 None None - -
10/24/2014 22:25 Dry 42.3F 50F - - - - - 40 mhos 3974 None None - -
10/24/2014 22:17 Dry 42.6F 50F - - - - - 40 mhos 3956 None None - -
10/24/2014 22:07 Dry 42.8F 50F - - - - - 40 mhos 3947 None None - -
10/24/2014 21:57 Dry 43.3F 50F - - - - - 40 mhos 3921 None None - -
10/24/2014 21:56 Dry 43.2F 49F - - - - - 40 mhos 3926 None None - -
10/24/2014 21:47 Dry 43.5F 50F - - - - - 40 mhos 3903 None None - -
10/24/2014 21:37 Dry 43.9F 49F - - - - - 40 mhos 3886 None None - -
10/24/2014 21:27 Dry 44.4F 49F - - - - - 40 mhos 3857 None None - -
10/24/2014 21:26 Dry 44.6F 49F - - - - - 40 mhos 3852 None None - -
10/24/2014 21:17 Dry 45.0F 49F - - - - - 40 mhos 3827 None None - -
10/24/2014 21:07 Dry 45.5F 49F - - - - - 40 mhos 3802 None None - -
10/24/2014 20:57 Dry 46.0F 49F - - - - - 40 mhos 3777 None None - -
Date/Time
(MDT)
Sf
Temp Chem Water Layer Surface Precipitation
Sf Sub Frz Factor Pct Depth IcePct Cond Salin Type Intens Accum Rate
10/24/2014 20:56 Dry 46.2F 49F - - - - - 40 mhos 3769 None None - -
10/24/2014 20:47 Dry 46.2F 49F - - - - - 40 mhos 3761 None None - -
10/24/2014 20:37 Dry 46.4F 49F - - - - - 40 mhos 3753 None None - -
10/24/2014 20:27 Dry 46.9F 49F - - - - - 40 mhos 3729 None None - -
10/24/2014 20:26 Dry 46.9F 49F - - - - - 40 mhos 3729 None None - -
10/24/2014 20:17 Dry 47.5F 49F - - - - - 40 mhos 3706 None None - -
10/24/2014 20:07 Dry 48.0F 49F - - - - - 39 mhos 3645 None None - -
10/24/2014 19:57 Dry 48.7F 49F - - - - - 39 mhos 3615 None None - -
10/24/2014 19:56 Dry 48.7F 49F - - - - - 39 mhos 3608 None None - -
10/24/2014 19:47 Dry 49.6F 49F - - - - - 39 mhos 3571 None None - -
10/24/2014 19:36 Dry 49.6F 49F - - - - - 39 mhos 3571 None None - -
10/24/2014 19:26 Dry 49.6F 49F - - - - - 39 mhos 3571 None None - -
10/24/2014 19:25 Dry 49.8F 49F - - - - - 39 mhos 3564 None None - -
10/24/2014 19:16 Dry 50.0F 49F - - - - - 39 mhos 3549 None None - -
10/24/2014 19:06 Dry 50.9F 49F - - - - - 40 mhos 3613 None None - -
Date/Time
(MDT)
Sf
Temp Chem Water Layer Surface Precipitation
Sf Sub Frz Factor Pct Depth IcePct Cond Salin Type Intens Accum Rate
10/24/2014 18:56 Dry 51.4F 48F - - - - - 39 mhos 3486 None None - -
10/24/2014 18:55 Dry 51.4F 48F - - - - - 39 mhos 3486 None None - -
10/24/2014 18:46 Dry 52.5F 48F - - - - - 39 mhos 3419 None None - -
10/24/2014 18:40 Dry 53.1F 48F - - - - - 39 mhos 3392 None None - -
10/24/2014 18:36 Dry 53.4F 48F - - - - - 39 mhos 3379 None None - -
10/24/2014 18:26 Dry 54.3F 48F - - - - - 39 mhos 3340 None None - -
10/24/2014 18:25 Dry 54.5F 48F - - - - - 39 mhos 3334 None None - -
10/24/2014 18:16 Dry 55.4F 48F - - - - - 39 mhos 3271 None None - -
10/24/2014 18:10 Dry 56.3F 48F - - - - - 39 mhos 3235 None None - -
10/24/2014 18:06 Dry 56.8F 48F - - - - - 39 mhos 3217 None None - -
10/24/2014 17:56 Dry 59.0F 48F - - - - - 39 mhos 3136 None None - -
10/24/2014 17:55 Dry 59.2F 48F - - - - - 39 mhos 3131 None None - -
10/24/2014 17:46 Dry 60.6F 48F - - - - - 38 mhos 3058 None None - -
10/24/2014 17:40 Dry 61.5F 48F - - - - - 38 mhos 3026 None None - -
10/24/2014 17:36 Dry 62.1F 48F - - - - - 38 mhos 3010 None None - -
Date/Time
(MDT)
Sf
Temp Chem Water Layer Surface Precipitation
Sf Sub Frz Factor Pct Depth IcePct Cond Salin Type Intens Accum Rate
10/24/2014 17:26 Dry 63.3F 48F - - - - - 38 mhos 2947 None None - -
10/24/2014 17:25 Dry 63.3F 48F - - - - - 38 mhos 2942 None None - -
10/24/2014 17:16 Dry 64.8F 48F - - - - - 38 mhos 2898 None None - -
10/24/2014 17:10 Dry 65.7F 47F - - - - - 38 mhos 2872 None None - -
10/24/2014 17:06 Dry 66.2F 47F - - - - - 38 mhos 2834 None None - -
10/24/2014 16:56 Dry 67.5F 47F - - - - - 38 mhos 2797 None None - -
10/24/2014 16:55 Dry 67.6F 47F - - - - - 38 mhos 2793 None None - -
10/24/2014 16:46 Dry 67.8F 47F - - - - - 38 mhos 2784 None None - -
10/24/2014 16:40 Dry 68.4F 47F - - - - - 38 mhos 2771 None None - -
10/24/2014 16:36 Dry 68.5F 47F - - - - - 38 mhos 2766 None None - -
10/24/2014 16:25 Dry 69.8F 47F - - - - - 38 mhos 2712 None None - -
10/24/2014 16:25 Dry 70.2F 47F - - - - - 38 mhos 2703 None None - -
10/24/2014 16:15 Dry 71.4F 47F - - - - - 38 mhos 2666 None None - -
10/24/2014 16:10 Dry 72.1F 47F - - - - - 38 mhos 2649 None None - -
10/24/2014 16:05 Dry 72.1F 47F - - - - - 38 mhos 2649 None None - -
Date/Time
(MDT)
Sf
Temp Chem Water Layer Surface Precipitation
Sf Sub Frz Factor Pct Depth IcePct Cond Salin Type Intens Accum Rate
10/24/2014 15:55 Dry 70.3F 47F - - - - - 38 mhos 2695 None None - -
10/24/2014 15:55 Dry 70.0F 47F - - - - - 38 mhos 2707 None None - -
10/24/2014 15:45 Dry 70.7F 47F - - - - - 38 mhos 2686 None None - -
10/24/2014 15:40 Dry 67.8F 47F - - - - - 38 mhos 2784 None None - -
10/24/2014 15:35 Dry 66.9F 47F - - - - - 38 mhos 2813 None None - -
10/24/2014 15:26 Dry 67.3F 47F - - - - - 38 mhos 2802 None None - -
10/24/2014 15:25 Dry 67.3F 47F - - - - - 38 mhos 2802 None None - -
10/24/2014 15:15 Dry 68.9F 47F - - - - - 38 mhos 2737 None None - -
Change End Date:
Copyright © 1998-2005 Surface Systems, Inc.
All Rights Reserved
Send comments about the data to:
SCAN Web ® is a registered trademark of Surface Systems, Inc.
SCAN Web Version 5.6